COSMOS 2251 DEB, 37546

Orbit data source: Space-Track

COSMOS 2251 DEB, 37546 is space debris in LEO originally from a launch on Wed, 16 Jun 1993 UTC launched from the Plesetsk Missile And Space Complex (PKMTR). The debris from Iridium 33, an American commercial communications satellite, has been tracked extensively since its accidental collision with the defunct Russian satellite Cosmos 2251 in 2009. This event, occurring at high speed in low Earth orbit (LEO), generated thousands of pieces of space debris, significantly increasing the risk of further collisions. The Iridium 33 debris cloud has impacted space traffic management and orbital debris mitigation strategies, making it a subject of ongoing study in space situational awareness.

Loading next visibility...
Identifier
37546, 1993-036BPB
Orbit
LEO
Country
Flag of CISCIS
Related business
Manufacturer
Unknown
Mission
Spacecraft
Bus & Motor
Unknown
Mass
Unknown
Launch date (UTC)
1993-06-16 (33 years ago)
Launch vehicle
Unknown
Launch site
Plesetsk Missile And Space Complex (PKMTR)
Object type
Payload
Rocket body
Debris
Shape & HBR
Unknown shape, 0.1 m
Radar Cross Section
Small (<0.1 m²)

Expand to show TLE details & history
Last TLE update: 20 hours ago

TLE from 20 hours ago
0 COSMOS 2251 DEB
1 37546U 93036BPB 26206.88022766  .00016264  00000-0  17518-2 0  9994
2 37546  74.0192  10.7356 0004850  15.3496 344.7831 14.88441382692298
Epoch: 2026-07-25T21:07Z
TLE epoch observation values (Epoch: 2026-07-25T21:07:31.669Z)
Latitude
-0.00002°
Longitude
110.26748°
Altitude
602.211 km
Speed
7.56 km/s
True Right ascension
00h 42m 56s
True Declination
0° 00' 00"
Sunlit
Object was in daylight at epoch
Visualization orbit readout
Latitude
Unknown
Longitude
Unknown
Altitude
Unknown
Speed
Unknown
Apparent Right ascension
Unknown
Apparent Declination
Unknown
Sunlit
N/A
Visualization observer readout
Local Sidereal Time
06:32:42
Azimuth
Unknown
Elevation
Unknown
Doppler factor
Unknown
Orbital elements
Apogee altitude
603.757 km
Perigee altitude
596.988 km
Semi-major axis
6,978.51 km
Eccentricity
0.00049
Inclination
74.0192°
RAAN
10.7356°
Arg. of periapsis
15.3496°
True anomaly
344.7685°
Mean anomaly
344.7831°
Eccentric anomaly
344.7758°
Mean motion
3.72305 °/min
Orbital period
96.69 mins
BSTAR
0.0017518
Loading maneuver chart data...
Computing Atmospheric mass density...

Documentation

Showing up to 5 results
|